Time,TemperatureF,DewpointF,PressureIn,WindDirection,WindDirectionDegrees,WindSpeedMPH,WindSpeedGustMPH,Humidity,HourlyPrecipIn,Conditions,Clouds,dailyrainin,SoftwareType,DateUTC
2013-09-10 00:04:00,79.2,66.8,28.85,WNW,292,0.0,2.5,66,0.00,,,0.00,VWS V14.01,2013-09-10 05:04:00,
2013-09-10 00:09:00,79.0,66.7,28.85,WNW,292,0.0,2.7,66,0.00,,,0.00,VWS V14.01,2013-09-10 05:09:00,
2013-09-10 00:14:00,79.0,66.7,28.85,North,0,0.9,2.2,66,0.00,,,0.00,VWS V14.01,2013-09-10 05:14:00,
2013-09-10 00:19:00,78.6,66.8,28.85,North,0,0.0,1.1,67,0.00,,,0.00,VWS V14.01,2013-09-10 05:19:00,
2013-09-10 00:24:00,78.3,66.4,28.85,North,0,0.0,0.0,67,0.00,,,0.00,VWS V14.01,2013-09-10 05:24:00,
2013-09-10 00:29:00,78.1,66.7,28.85,NNW,338,0.0,2.9,68,0.00,,,0.00,VWS V14.01,2013-09-10 05:29:00,
2013-09-10 00:34:00,77.7,66.3,28.85,WSW,248,0.0,1.3,68,0.00,,,0.00,VWS V14.01,2013-09-10 05:34:00,
2013-09-10 00:40:00,77.5,66.6,28.85,WNW,292,0.0,2.2,69,0.00,,,0.00,VWS V14.01,2013-09-10 05:40:00,
2013-09-10 00:45:00,77.4,66.8,28.85,SSW,202,0.0,1.3,70,0.00,,,0.00,VWS V14.01,2013-09-10 05:45:00,
2013-09-10 00:50:00,77.0,66.5,28.85,NW,315,0.0,0.0,70,0.00,,,0.00,VWS V14.01,2013-09-10 05:50:00,
2013-09-10 00:55:00,76.8,66.3,28.85,NE,45,0.0,2.7,70,0.00,,,0.00,VWS V14.01,2013-09-10 05:55:00,
2013-09-10 01:00:00,76.8,66.7,28.85,NE,45,0.0,2.2,71,0.00,,,0.00,VWS V14.01,2013-09-10 06:00:00,
2013-09-10 01:05:00,76.8,66.7,28.85,West,270,1.1,1.1,71,0.00,,,0.00,VWS V14.01,2013-09-10 06:05:00,
2013-09-10 01:10:00,77.0,67.3,28.88,West,270,2.2,2.2,72,0.00,,,0.00,VWS V14.01,2013-09-10 06:10:00,
2013-09-10 01:15:00,77.2,67.1,28.88,West,270,0.9,0.9,71,0.00,,,0.00,VWS V14.01,2013-09-10 06:15:00,
2013-09-10 01:20:00,77.0,67.3,28.88,WNW,292,1.6,1.6,72,0.00,,,0.00,VWS V14.01,2013-09-10 06:20:00,
2013-09-10 01:25:00,76.8,67.1,28.88,NNW,338,0.0,0.0,72,0.00,,,0.00,VWS V14.01,2013-09-10 06:25:00,
2013-09-10 01:30:00,76.5,66.8,28.88,ENE,68,0.0,0.0,72,0.00,,,0.00,VWS V14.01,2013-09-10 06:30:00,
2013-09-10 01:36:00,76.5,67.2,28.91,West,270,1.1,2.5,73,0.00,,,0.00,VWS V14.01,2013-09-10 06:36:00,
2013-09-10 01:41:00,76.3,67.0,28.91,NNW,338,0.0,0.0,73,0.00,,,0.00,VWS V14.01,2013-09-10 06:41:00,
2013-09-10 01:46:00,76.1,67.2,28.91,West,270,0.0,0.0,74,0.00,,,0.00,VWS V14.01,2013-09-10 06:46:00,
2013-09-10 01:51:00,75.9,67.0,28.91,West,270,0.0,0.0,74,0.00,,,0.00,VWS V14.01,2013-09-10 06:51:00,
2013-09-10 01:56:00,75.6,67.1,28.91,West,270,0.0,0.0,75,0.00,,,0.00,VWS V14.01,2013-09-10 06:56:00,
2013-09-10 02:01:00,75.4,66.9,28.91,West,270,0.9,0.9,75,0.00,,,0.00,VWS V14.01,2013-09-10 07:01:00,
2013-09-10 02:06:00,75.2,67.1,28.91,SW,225,0.0,0.0,76,0.00,,,0.00,VWS V14.01,2013-09-10 07:06:00,
2013-09-10 02:11:00,75.0,66.9,28.91,SW,225,0.0,0.0,76,0.00,,,0.00,VWS V14.01,2013-09-10 07:11:00,
2013-09-10 02:16:00,74.8,66.8,28.91,SW,225,0.0,0.0,76,0.00,,,0.00,VWS V14.01,2013-09-10 07:16:00,
2013-09-10 02:21:00,74.8,67.2,28.91,SW,225,0.0,0.0,77,0.00,,,0.00,VWS V14.01,2013-09-10 07:21:00,
2013-09-10 02:26:00,74.5,66.8,28.91,SW,225,0.0,0.0,77,0.00,,,0.00,VWS V14.01,2013-09-10 07:26:00,
2013-09-10 02:31:00,74.5,67.2,28.91,East,90,0.0,0.0,78,0.00,,,0.00,VWS V14.01,2013-09-10 07:31:00,
2013-09-10 02:36:00,74.5,67.2,28.91,South,180,0.0,0.0,78,0.00,,,0.00,VWS V14.01,2013-09-10 07:36:00,
2013-09-10 02:41:00,74.3,67.4,28.91,ESE,112,0.0,1.3,79,0.00,,,0.00,VWS V14.01,2013-09-10 07:41:00,
2013-09-10 02:46:00,74.3,67.4,28.91,South,180,0.0,1.6,79,0.00,,,0.00,VWS V14.01,2013-09-10 07:46:00,
2013-09-10 02:51:00,74.3,68.1,28.91,SW,225,0.0,1.1,81,0.00,,,0.00,VWS V14.01,2013-09-10 07:51:00,
2013-09-10 02:57:00,74.5,67.9,28.91,South,180,2.0,2.0,80,0.00,,,0.00,VWS V14.01,2013-09-10 07:57:00,
2013-09-10 03:02:00,74.7,68.4,28.91,WNW,292,0.0,1.3,81,0.00,,,0.00,VWS V14.01,2013-09-10 08:02:00,
2013-09-10 03:07:00,74.7,68.4,28.88,SSW,202,0.0,0.9,81,0.00,,,0.00,VWS V14.01,2013-09-10 08:07:00,
2013-09-10 03:12:00,74.7,68.8,28.88,South,180,0.0,2.0,82,0.00,,,0.00,VWS V14.01,2013-09-10 08:12:00,
2013-09-10 03:17:00,74.7,68.4,28.88,South,180,0.0,1.3,81,0.00,,,0.00,VWS V14.01,2013-09-10 08:17:00,
2013-09-10 03:22:00,74.7,68.8,28.91,SSW,202,0.0,0.0,82,0.00,,,0.00,VWS V14.01,2013-09-10 08:22:00,
2013-09-10 03:27:00,74.5,69.0,28.91,East,90,0.0,1.1,83,0.00,,,0.00,VWS V14.01,2013-09-10 08:27:00,
2013-09-10 03:32:00,74.3,68.8,28.91,WSW,248,0.0,1.3,83,0.00,,,0.00,VWS V14.01,2013-09-10 08:32:00,
2013-09-10 03:37:00,74.3,69.2,28.88,West,270,0.0,2.0,84,0.00,,,0.00,VWS V14.01,2013-09-10 08:37:00,
2013-09-10 03:42:00,73.9,68.5,28.88,West,270,0.0,0.0,83,0.00,,,0.00,VWS V14.01,2013-09-10 08:42:00,
2013-09-10 03:47:00,73.9,69.5,28.88,South,180,0.0,1.1,86,0.00,,,0.00,VWS V14.01,2013-09-10 08:47:00,
2013-09-10 03:52:00,73.8,69.0,28.91,SW,225,0.0,0.0,85,0.00,,,0.00,VWS V14.01,2013-09-10 08:52:00,
2013-09-10 03:57:00,73.6,69.1,28.91,SW,225,0.0,0.0,86,0.00,,,0.00,VWS V14.01,2013-09-10 08:57:00,
2013-09-10 04:02:00,73.4,69.0,28.91,SSE,158,0.0,0.0,86,0.00,,,0.00,VWS V14.01,2013-09-10 09:02:00,
2013-09-10 04:07:00,73.2,69.1,28.91,South,180,0.0,0.0,87,0.00,,,0.00,VWS V14.01,2013-09-10 09:07:00,
2013-09-10 04:12:00,73.0,68.9,28.91,South,180,0.0,0.0,87,0.00,,,0.00,VWS V14.01,2013-09-10 09:12:00,
2013-09-10 04:17:00,72.9,68.8,28.91,South,180,0.0,0.0,87,0.00,,,0.00,VWS V14.01,2013-09-10 09:17:00,
2013-09-10 04:22:00,72.7,68.9,28.94,SSW,202,0.0,1.1,88,0.00,,,0.00,VWS V14.01,2013-09-10 09:22:00,
2013-09-10 04:27:00,72.5,68.8,28.94,SSW,202,0.0,0.0,88,0.00,,,0.00,VWS V14.01,2013-09-10 09:27:00,
2013-09-10 04:33:00,72.5,69.1,28.94,SSW,202,2.0,2.0,89,0.00,,,0.00,VWS V14.01,2013-09-10 09:33:00,
2013-09-10 04:38:00,72.5,69.4,28.94,West,270,0.0,1.1,90,0.00,,,0.00,VWS V14.01,2013-09-10 09:38:00,
2013-09-10 04:43:00,72.7,69.9,28.94,WNW,292,1.1,4.7,91,0.00,,,0.00,VWS V14.01,2013-09-10 09:43:00,
2013-09-10 04:48:00,72.7,70.2,28.94,WNW,292,0.9,3.8,92,0.00,,,0.00,VWS V14.01,2013-09-10 09:48:00,
2013-09-10 04:53:00,72.9,70.7,28.94,SW,225,1.1,4.3,93,0.00,,,0.00,VWS V14.01,2013-09-10 09:53:00,
2013-09-10 04:58:00,73.2,71.1,28.94,NW,315,2.5,2.7,93,0.00,,,0.00,VWS V14.01,2013-09-10 09:58:00,
2013-09-10 05:03:00,73.6,71.4,28.94,West,270,4.3,4.3,93,0.00,,,0.00,VWS V14.01,2013-09-10 10:03:00,
2013-09-10 05:08:00,73.8,71.6,28.94,ESE,112,0.9,4.0,93,0.00,,,0.00,VWS V14.01,2013-09-10 10:08:00,
2013-09-10 05:13:00,73.9,71.8,28.94,WSW,248,2.0,2.5,93,0.00,,,0.00,VWS V14.01,2013-09-10 10:13:00,
2013-09-10 05:18:00,73.8,71.6,28.94,South,180,3.1,3.1,93,0.00,,,0.00,VWS V14.01,2013-09-10 10:18:00,
2013-09-10 05:23:00,73.6,71.1,28.94,WSW,248,2.7,4.0,92,0.00,,,0.00,VWS V14.01,2013-09-10 10:23:00,
2013-09-10 05:28:00,73.6,71.1,28.94,South,180,2.9,2.9,92,0.00,,,0.00,VWS V14.01,2013-09-10 10:28:00,
2013-09-10 05:33:00,73.4,71.3,28.94,SSE,158,1.1,2.2,93,0.00,,,0.00,VWS V14.01,2013-09-10 10:33:00,
2013-09-10 05:38:00,73.2,71.1,28.94,SE,135,0.0,0.9,93,0.00,,,0.00,VWS V14.01,2013-09-10 10:38:00,
2013-09-10 05:43:00,72.9,70.7,28.94,ESE,112,0.0,2.0,93,0.00,,,0.00,VWS V14.01,2013-09-10 10:43:00,
2013-09-10 05:48:00,72.7,70.5,28.94,SSW,202,2.0,2.0,93,0.00,,,0.00,VWS V14.01,2013-09-10 10:48:00,
2013-09-10 05:53:00,72.5,70.4,28.97,NNE,22,0.0,1.1,93,0.00,,,0.00,VWS V14.01,2013-09-10 10:53:00,
2013-09-10 05:58:00,72.1,70.3,28.97,NNE,22,0.0,1.3,94,0.00,,,0.00,VWS V14.01,2013-09-10 10:58:00,
2013-09-10 06:04:00,72.0,69.8,28.97,NNE,22,0.0,0.0,93,0.00,,,0.00,VWS V14.01,2013-09-10 11:04:00,
2013-09-10 06:09:00,71.8,69.7,28.97,NNE,22,0.0,0.0,93,0.00,,,0.00,VWS V14.01,2013-09-10 11:09:00,
2013-09-10 06:14:00,71.4,69.3,28.97,WNW,292,1.1,1.6,93,0.00,,,0.00,VWS V14.01,2013-09-10 11:14:00,
2013-09-10 06:19:00,71.1,69.2,28.97,WNW,292,0.0,0.9,94,0.00,,,0.00,VWS V14.01,2013-09-10 11:19:00,
2013-09-10 06:24:00,70.7,68.9,28.97,WNW,292,0.0,0.9,94,0.00,,,0.00,VWS V14.01,2013-09-10 11:24:00,
2013-09-10 06:29:00,70.5,68.7,28.97,SSW,202,0.0,1.1,94,0.00,,,0.00,VWS V14.01,2013-09-10 11:29:00,
2013-09-10 06:34:00,70.2,68.4,28.97,South,180,0.0,0.0,94,0.00,,,0.00,VWS V14.01,2013-09-10 11:34:00,
2013-09-10 06:39:00,70.2,69.0,28.97,West,270,0.0,2.2,96,0.00,,,0.00,VWS V14.01,2013-09-10 11:39:00,
2013-09-10 06:44:00,70.0,68.8,28.97,WNW,292,1.6,2.0,96,0.00,,,0.00,VWS V14.01,2013-09-10 11:44:00,
2013-09-10 06:49:00,70.0,68.8,28.97,WNW,292,0.0,2.0,96,0.00,,,0.00,VWS V14.01,2013-09-10 11:49:00,
2013-09-10 06:54:00,70.0,68.8,28.97,South,180,0.0,1.3,96,0.00,,,0.00,VWS V14.01,2013-09-10 11:54:00,
2013-09-10 06:59:00,70.0,68.8,28.97,South,180,0.0,0.9,96,0.00,,,0.00,VWS V14.01,2013-09-10 11:59:00,
2013-09-10 07:04:00,70.0,68.8,28.97,NE,45,0.0,1.3,96,0.00,,,0.00,VWS V14.01,2013-09-10 12:04:00,
2013-09-10 07:09:00,70.0,68.8,28.97,NE,45,0.0,0.0,96,0.00,,,0.00,VWS V14.01,2013-09-10 12:09:00,
2013-09-10 07:14:00,70.0,68.8,28.97,NE,45,0.0,0.0,96,0.00,,,0.00,VWS V14.01,2013-09-10 12:14:00,
2013-09-10 07:20:00,70.0,68.8,28.97,NE,45,0.0,0.0,96,0.00,,,0.00,VWS V14.01,2013-09-10 12:20:00,
2013-09-10 07:25:00,70.0,68.8,29.00,NE,45,0.0,1.3,96,0.00,,,0.00,VWS V14.01,2013-09-10 12:25:00,
2013-09-10 07:30:00,70.0,68.8,29.00,SSW,202,0.0,0.0,96,0.00,,,0.00,VWS V14.01,2013-09-10 12:30:00,
2013-09-10 07:35:00,70.2,69.0,29.00,ESE,112,0.0,0.0,96,0.00,,,0.00,VWS V14.01,2013-09-10 12:35:00,
2013-09-10 07:40:00,70.3,69.2,29.00,South,180,1.1,1.6,96,0.00,,,0.00,VWS V14.01,2013-09-10 12:40:00,
2013-09-10 07:45:00,70.5,69.0,29.00,West,270,0.0,2.0,95,0.00,,,0.00,VWS V14.01,2013-09-10 12:45:00,
2013-09-10 07:50:00,71.2,69.7,29.00,SSW,202,0.0,0.0,95,0.00,,,0.00,VWS V14.01,2013-09-10 12:50:00,
2013-09-10 07:55:00,71.8,70.0,29.00,SSW,202,0.0,0.0,94,0.00,,,0.00,VWS V14.01,2013-09-10 12:55:00,
2013-09-10 08:00:00,72.3,70.5,29.00,NNW,338,0.0,0.0,94,0.00,,,0.00,VWS V14.01,2013-09-10 13:00:00,
2013-09-10 08:05:00,72.5,70.4,29.00,West,270,2.5,2.7,93,0.00,,,0.00,VWS V14.01,2013-09-10 13:05:00,
2013-09-10 08:10:00,72.3,69.9,29.00,WSW,248,1.3,1.3,92,0.00,,,0.00,VWS V14.01,2013-09-10 13:10:00,
2013-09-10 08:15:00,72.5,70.1,29.00,SSE,158,1.1,1.1,92,0.00,,,0.00,VWS V14.01,2013-09-10 13:15:00,
2013-09-10 08:20:00,72.9,70.1,29.00,NNW,338,0.0,0.0,91,0.00,,,0.00,VWS V14.01,2013-09-10 13:20:00,
2013-09-10 08:25:00,73.0,69.9,29.03,SW,225,2.7,2.7,90,0.00,,,0.00,VWS V14.01,2013-09-10 13:25:00,
2013-09-10 08:30:00,73.0,69.9,29.03,SSW,202,2.0,2.0,90,0.00,,,0.00,VWS V14.01,2013-09-10 13:30:00,
2013-09-10 08:35:00,73.0,69.6,29.03,South,180,2.7,7.4,89,0.00,,,0.00,VWS V14.01,2013-09-10 13:35:00,
2013-09-10 08:40:00,73.0,69.3,29.03,ESE,112,3.1,3.1,88,0.00,,,0.00,VWS V14.01,2013-09-10 13:40:00,
2013-09-10 08:45:00,73.2,69.5,29.03,SW,225,1.1,6.3,88,0.00,,,0.00,VWS V14.01,2013-09-10 13:45:00,
2013-09-10 08:50:00,73.4,69.3,29.03,WSW,248,2.5,2.5,87,0.00,,,0.00,VWS V14.01,2013-09-10 13:50:00,
2013-09-10 08:55:00,73.4,69.0,29.03,WSW,248,3.1,3.1,86,0.00,,,0.00,VWS V14.01,2013-09-10 13:55:00,
2013-09-10 09:00:00,73.4,69.0,29.03,SSE,158,4.9,4.9,86,0.00,,,0.00,VWS V14.01,2013-09-10 14:00:00,
2013-09-10 09:06:00,73.6,69.1,29.03,WSW,248,4.7,4.7,86,0.00,,,0.00,VWS V14.01,2013-09-10 14:06:00,
2013-09-10 09:11:00,73.9,69.5,29.03,WSW,248,2.0,3.6,86,0.00,,,0.00,VWS V14.01,2013-09-10 14:11:00,
2013-09-10 09:16:00,74.3,69.5,29.03,WNW,292,3.1,3.4,85,0.00,,,0.00,VWS V14.01,2013-09-10 14:16:00,
2013-09-10 09:21:00,74.7,69.5,29.00,SSE,158,2.5,3.8,84,0.00,,,0.00,VWS V14.01,2013-09-10 14:21:00,
2013-09-10 09:26:00,74.7,69.5,29.00,SSW,202,0.0,3.8,84,0.00,,,0.00,VWS V14.01,2013-09-10 14:26:00,
2013-09-10 09:31:00,75.4,69.5,29.00,ESE,112,2.0,2.0,82,0.00,,,0.00,VWS V14.01,2013-09-10 14:31:00,
2013-09-10 09:36:00,75.6,69.7,29.03,NNW,338,1.3,3.1,82,0.00,,,0.00,VWS V14.01,2013-09-10 14:36:00,
2013-09-10 09:41:00,75.4,68.8,29.03,South,180,2.2,4.9,80,0.00,,,0.00,VWS V14.01,2013-09-10 14:41:00,
2013-09-10 09:46:00,75.9,69.3,29.03,WNW,292,0.0,1.6,80,0.00,,,0.00,VWS V14.01,2013-09-10 14:46:00,
2013-09-10 09:51:00,75.7,68.8,29.03,South,180,2.5,3.6,79,0.00,,,0.00,VWS V14.01,2013-09-10 14:51:00,
2013-09-10 09:56:00,75.7,69.1,29.03,SSE,158,2.5,2.5,80,0.00,,,0.00,VWS V14.01,2013-09-10 14:56:00,
2013-09-10 10:01:00,75.9,69.3,29.03,South,180,1.1,2.7,80,0.00,,,0.00,VWS V14.01,2013-09-10 15:01:00,
2013-09-10 10:06:00,76.3,69.3,29.03,SE,135,0.9,0.9,79,0.00,,,0.00,VWS V14.01,2013-09-10 15:06:00,
2013-09-10 10:11:00,77.0,69.6,29.03,ENE,68,2.0,4.0,78,0.00,,,0.00,VWS V14.01,2013-09-10 15:11:00,
2013-09-10 10:16:00,77.4,70.0,29.03,SSE,158,1.1,4.0,78,0.00,,,0.00,VWS V14.01,2013-09-10 15:16:00,
2013-09-10 10:21:00,78.1,69.9,29.03,South,180,3.1,3.1,76,0.00,,,0.00,VWS V14.01,2013-09-10 15:21:00,
2013-09-10 10:26:00,78.4,69.9,29.03,ESE,112,1.6,2.0,75,0.00,,,0.00,VWS V14.01,2013-09-10 15:26:00,
2013-09-10 10:31:00,78.6,69.2,29.03,WSW,248,2.9,3.8,73,0.00,,,0.00,VWS V14.01,2013-09-10 15:31:00,
2013-09-10 10:36:00,79.0,69.2,29.03,SSW,202,5.4,5.4,72,0.00,,,0.00,VWS V14.01,2013-09-10 15:36:00,
2013-09-10 10:42:00,79.0,69.2,29.03,NE,45,0.9,1.6,72,0.00,,,0.00,VWS V14.01,2013-09-10 15:42:00,
2013-09-10 10:47:00,80.1,69.4,29.03,NE,45,0.0,2.2,70,0.00,,,0.00,VWS V14.01,2013-09-10 15:47:00,
2013-09-10 10:52:00,80.4,68.9,29.03,NW,315,1.3,3.6,68,0.00,,,0.00,VWS V14.01,2013-09-10 15:52:00,
2013-09-10 10:57:00,80.4,68.5,29.03,SE,135,2.5,3.4,67,0.00,,,0.00,VWS V14.01,2013-09-10 15:57:00,
2013-09-10 11:02:00,81.0,68.1,29.03,West,270,2.5,2.7,65,0.00,,,0.00,VWS V14.01,2013-09-10 16:02:00,
2013-09-10 11:07:00,81.3,68.4,29.03,South,180,2.2,3.1,65,0.00,,,0.00,VWS V14.01,2013-09-10 16:07:00,
2013-09-10 11:12:00,81.5,69.1,29.03,WNW,292,2.0,4.0,66,0.00,,,0.00,VWS V14.01,2013-09-10 16:12:00,
2013-09-10 11:17:00,82.0,67.8,29.03,North,0,2.0,4.3,62,0.00,,,0.00,VWS V14.01,2013-09-10 16:17:00,
2013-09-10 11:22:00,82.8,67.5,29.03,NNE,22,1.1,3.6,60,0.00,,,0.00,VWS V14.01,2013-09-10 16:22:00,
2013-09-10 11:27:00,82.6,67.3,29.03,WNW,292,2.2,2.9,60,0.00,,,0.00,VWS V14.01,2013-09-10 16:27:00,
2013-09-10 11:32:00,82.2,66.5,29.03,WNW,292,1.3,3.6,59,0.00,,,0.00,VWS V14.01,2013-09-10 16:32:00,
2013-09-10 11:37:00,81.7,66.5,29.03,WNW,292,0.0,2.5,60,0.00,,,0.00,VWS V14.01,2013-09-10 16:37:00,
2013-09-10 11:42:00,81.7,66.5,29.03,SSE,158,1.6,2.2,60,0.00,,,0.00,VWS V14.01,2013-09-10 16:42:00,
2013-09-10 11:47:00,82.0,66.3,29.03,WNW,292,2.5,3.1,59,0.00,,,0.00,VWS V14.01,2013-09-10 16:47:00,
2013-09-10 11:52:00,82.2,66.5,29.03,South,180,2.0,2.7,59,0.00,,,0.00,VWS V14.01,2013-09-10 16:52:00,
2013-09-10 11:57:00,82.2,65.5,29.03,WNW,292,1.6,7.2,57,0.00,,,0.00,VWS V14.01,2013-09-10 16:57:00,
2013-09-10 12:02:00,82.2,65.5,29.03,WNW,292,0.0,2.5,57,0.00,,,0.00,VWS V14.01,2013-09-10 17:02:00,
2013-09-10 12:07:00,82.4,65.7,29.06,West,270,3.6,4.3,57,0.00,,,0.00,VWS V14.01,2013-09-10 17:07:00,
2013-09-10 12:13:00,83.1,65.3,29.06,South,180,4.0,4.0,55,0.00,,,0.00,VWS V14.01,2013-09-10 17:13:00,
2013-09-10 12:18:00,83.8,66.0,29.06,South,180,3.1,3.6,55,0.00,,,0.00,VWS V14.01,2013-09-10 17:18:00,
2013-09-10 12:23:00,84.2,66.3,29.06,SW,225,3.8,5.6,55,0.00,,,0.00,VWS V14.01,2013-09-10 17:23:00,
2013-09-10 12:28:00,84.2,65.2,29.06,South,180,3.1,5.4,53,0.00,,,0.00,VWS V14.01,2013-09-10 17:28:00,
2013-09-10 12:33:00,84.4,64.8,29.06,WNW,292,2.7,4.9,52,0.00,,,0.00,VWS V14.01,2013-09-10 17:33:00,
2013-09-10 12:38:00,84.2,64.1,29.03,WSW,248,2.2,4.3,51,0.00,,,0.00,VWS V14.01,2013-09-10 17:38:00,
2013-09-10 12:43:00,84.9,64.8,29.03,SW,225,2.7,4.9,51,0.00,,,0.00,VWS V14.01,2013-09-10 17:43:00,
2013-09-10 12:48:00,84.9,64.8,29.03,SE,135,1.1,2.9,51,0.00,,,0.00,VWS V14.01,2013-09-10 17:48:00,
2013-09-10 12:53:00,85.1,63.8,29.03,NNW,338,2.7,4.3,49,0.00,,,0.00,VWS V14.01,2013-09-10 17:53:00,
2013-09-10 12:58:00,84.9,63.7,29.03,SSW,202,2.2,5.6,49,0.00,,,0.00,VWS V14.01,2013-09-10 17:58:00,
2013-09-10 13:03:00,85.3,64.0,29.03,SE,135,2.2,4.7,49,0.00,,,0.00,VWS V14.01,2013-09-10 18:03:00,
2013-09-10 13:08:00,85.6,64.3,29.03,WSW,248,0.9,4.3,49,0.00,,,0.00,VWS V14.01,2013-09-10 18:08:00,
2013-09-10 13:13:00,86.9,64.3,29.03,South,180,2.9,4.0,47,0.00,,,0.00,VWS V14.01,2013-09-10 18:13:00,
2013-09-10 13:18:00,86.7,64.1,29.03,ENE,68,2.0,5.4,47,0.00,,,0.00,VWS V14.01,2013-09-10 18:18:00,
2013-09-10 13:23:00,86.5,63.9,29.03,NNW,338,1.6,3.8,47,0.00,,,0.00,VWS V14.01,2013-09-10 18:23:00,
2013-09-10 13:28:00,86.9,63.7,29.03,NNE,22,2.7,5.4,46,0.00,,,0.00,VWS V14.01,2013-09-10 18:28:00,
2013-09-10 13:33:00,87.3,64.0,29.03,WNW,292,2.5,3.8,46,0.00,,,0.00,VWS V14.01,2013-09-10 18:33:00,
2013-09-10 13:38:00,87.1,63.8,29.03,NW,315,1.1,2.9,46,0.00,,,0.00,VWS V14.01,2013-09-10 18:38:00,
2013-09-10 13:43:00,86.7,62.9,29.03,NW,315,3.8,5.4,45,0.00,,,0.00,VWS V14.01,2013-09-10 18:43:00,
2013-09-10 13:48:00,85.5,62.3,29.03,ENE,68,2.7,6.5,46,0.00,,,0.00,VWS V14.01,2013-09-10 18:48:00,
2013-09-10 13:54:00,84.2,61.2,29.03,West,270,4.3,4.3,46,0.00,,,0.00,VWS V14.01,2013-09-10 18:54:00,
2013-09-10 13:59:00,83.5,61.2,29.03,WSW,248,3.6,5.6,47,0.00,,,0.00,VWS V14.01,2013-09-10 18:59:00,
2013-09-10 14:04:00,82.8,61.7,29.03,West,270,2.7,6.0,49,0.00,,,0.00,VWS V14.01,2013-09-10 19:04:00,
2013-09-10 14:09:00,82.0,63.8,29.00,SW,225,3.6,4.3,54,0.00,,,0.00,VWS V14.01,2013-09-10 19:09:00,
2013-09-10 14:14:00,81.5,63.8,29.00,East,90,0.0,5.4,55,0.00,,,0.00,VWS V14.01,2013-09-10 19:14:00,
2013-09-10 14:19:00,81.5,65.3,29.00,NW,315,1.3,5.8,58,0.00,,,0.00,VWS V14.01,2013-09-10 19:19:00,
2013-09-10 14:24:00,81.5,65.8,29.03,NW,315,2.7,4.0,59,0.00,,,0.00,VWS V14.01,2013-09-10 19:24:00,
2013-09-10 14:29:00,81.3,65.6,29.03,SSE,158,3.1,5.4,59,0.00,,,0.00,VWS V14.01,2013-09-10 19:29:00,
2013-09-10 14:34:00,81.1,65.0,29.03,South,180,3.6,4.7,58,0.00,,,0.00,VWS V14.01,2013-09-10 19:34:00,
2013-09-10 14:39:00,81.1,65.0,29.03,West,270,2.9,3.8,58,0.00,,,0.00,VWS V14.01,2013-09-10 19:39:00,
2013-09-10 14:44:00,81.3,65.6,29.03,NNE,22,2.9,7.6,59,0.00,,,0.00,VWS V14.01,2013-09-10 19:44:00,
2013-09-10 14:49:00,81.1,65.0,29.03,NNW,338,4.0,6.0,58,0.00,,,0.00,VWS V14.01,2013-09-10 19:49:00,
2013-09-10 14:54:00,81.3,66.1,29.00,South,180,2.9,4.0,60,0.00,,,0.00,VWS V14.01,2013-09-10 19:54:00,
2013-09-10 14:59:00,81.3,65.1,29.00,NNE,22,2.2,6.3,58,0.00,,,0.00,VWS V14.01,2013-09-10 19:59:00,
2013-09-10 15:04:00,81.1,65.0,29.00,SW,225,2.5,6.3,58,0.00,,,0.00,VWS V14.01,2013-09-10 20:04:00,
2013-09-10 15:09:00,80.8,64.6,29.03,NW,315,2.5,5.8,58,0.00,,,0.00,VWS V14.01,2013-09-10 20:09:00,
2013-09-10 15:14:00,80.6,64.5,29.03,WSW,248,1.1,5.8,58,0.00,,,0.00,VWS V14.01,2013-09-10 20:14:00,
2013-09-10 15:19:00,80.2,65.1,29.03,WNW,292,2.7,4.9,60,0.00,,,0.00,VWS V14.01,2013-09-10 20:19:00,
2013-09-10 15:25:00,80.2,65.1,29.00,NNW,338,4.0,4.9,60,0.00,,,0.00,VWS V14.01,2013-09-10 20:25:00,
2013-09-10 15:30:00,80.1,65.4,29.00,NE,45,0.0,5.4,61,0.00,,,0.00,VWS V14.01,2013-09-10 20:30:00,
2013-09-10 15:35:00,80.2,65.6,29.00,West,270,0.0,3.1,61,0.00,,,0.00,VWS V14.01,2013-09-10 20:35:00,
2013-09-10 15:40:00,80.4,65.8,29.03,WSW,248,0.0,2.5,61,0.00,,,0.00,VWS V14.01,2013-09-10 20:40:00,
2013-09-10 15:45:00,80.6,65.4,29.03,NE,45,2.7,4.0,60,0.00,,,0.00,VWS V14.01,2013-09-10 20:45:00,
2013-09-10 15:50:00,81.0,65.3,29.03,SSE,158,0.0,4.9,59,0.00,,,0.00,VWS V14.01,2013-09-10 20:50:00,
2013-09-10 15:55:00,81.1,65.9,29.03,NNW,338,1.1,2.0,60,0.00,,,0.00,VWS V14.01,2013-09-10 20:55:00,
2013-09-10 16:00:00,81.1,65.9,29.03,South,180,3.6,4.0,60,0.00,,,0.00,VWS V14.01,2013-09-10 21:00:00,
2013-09-10 16:05:00,81.3,66.1,29.03,NNW,338,2.7,4.3,60,0.00,,,0.00,VWS V14.01,2013-09-10 21:05:00,
2013-09-10 16:10:00,81.3,66.1,29.03,WNW,292,2.7,2.7,60,0.00,,,0.00,VWS V14.01,2013-09-10 21:10:00,
2013-09-10 16:15:00,81.1,65.9,29.03,NNW,338,2.2,2.5,60,0.00,,,0.00,VWS V14.01,2013-09-10 21:15:00,
2013-09-10 16:20:00,81.0,65.8,29.03,West,270,2.5,2.7,60,0.00,,,0.00,VWS V14.01,2013-09-10 21:20:00,
2013-09-10 16:25:00,80.8,65.6,29.00,NNW,338,2.7,3.6,60,0.00,,,0.00,VWS V14.01,2013-09-10 21:25:00,
2013-09-10 16:30:00,80.8,65.6,29.00,West,270,0.9,3.4,60,0.00,,,0.00,VWS V14.01,2013-09-10 21:30:00,
2013-09-10 16:35:00,80.8,66.1,29.00,South,180,0.9,1.3,61,0.00,,,0.00,VWS V14.01,2013-09-10 21:35:00,
2013-09-10 16:40:00,80.6,64.5,29.00,NW,315,1.3,3.8,58,0.00,,,0.00,VWS V14.01,2013-09-10 21:40:00,
2013-09-10 16:45:00,80.4,64.3,29.00,NW,315,1.1,2.5,58,0.00,,,0.00,VWS V14.01,2013-09-10 21:45:00,
2013-09-10 16:50:00,80.4,63.8,29.00,WNW,292,2.0,2.2,57,0.00,,,0.00,VWS V14.01,2013-09-10 21:50:00,
2013-09-10 16:55:00,80.2,63.6,29.00,NNW,338,2.7,3.1,57,0.00,,,0.00,VWS V14.01,2013-09-10 21:55:00,
2013-09-10 17:01:00,80.2,63.6,29.00,NNW,338,2.7,2.7,57,0.00,,,0.00,VWS V14.01,2013-09-10 22:01:00,
2013-09-10 17:06:00,80.1,63.5,29.03,NNE,22,2.7,4.3,57,0.00,,,0.00,VWS V14.01,2013-09-10 22:06:00,
2013-09-10 17:11:00,80.1,64.0,29.03,SW,225,0.0,4.3,58,0.00,,,0.00,VWS V14.01,2013-09-10 22:11:00,
2013-09-10 17:16:00,80.1,63.5,29.03,West,270,0.0,2.5,57,0.00,,,0.00,VWS V14.01,2013-09-10 22:16:00,
2013-09-10 17:21:00,79.9,63.3,29.03,West,270,0.9,0.9,57,0.00,,,0.00,VWS V14.01,2013-09-10 22:21:00,
2013-09-10 17:26:00,79.7,63.6,29.03,NE,45,3.4,3.4,58,0.00,,,0.00,VWS V14.01,2013-09-10 22:26:00,
2013-09-10 17:31:00,79.5,64.0,29.03,NW,315,2.0,2.5,59,0.00,,,0.00,VWS V14.01,2013-09-10 22:31:00,
2013-09-10 17:36:00,79.2,63.6,29.03,WNW,292,0.9,1.3,59,0.00,,,0.00,VWS V14.01,2013-09-10 22:36:00,
2013-09-10 17:41:00,79.0,63.4,29.03,WNW,292,0.9,1.3,59,0.00,,,0.00,VWS V14.01,2013-09-10 22:41:00,
2013-09-10 17:46:00,78.8,63.8,29.03,SSW,202,0.0,0.0,60,0.00,,,0.00,VWS V14.01,2013-09-10 22:46:00,
2013-09-10 17:51:00,78.8,63.8,29.03,WSW,248,0.0,1.3,60,0.00,,,0.00,VWS V14.01,2013-09-10 22:51:00,
2013-09-10 17:56:00,78.4,63.9,29.03,WSW,248,0.0,0.0,61,0.00,,,0.00,VWS V14.01,2013-09-10 22:56:00,
2013-09-10 18:02:00,78.3,63.7,29.03,South,180,1.1,2.9,61,0.00,,,0.00,VWS V14.01,2013-09-10 23:02:00,
2013-09-10 18:07:00,78.1,63.5,29.03,South,180,0.0,0.0,61,0.00,,,0.00,VWS V14.01,2013-09-10 23:07:00,
2013-09-10 18:12:00,78.1,63.5,29.03,SSE,158,1.6,1.6,61,0.00,,,0.00,VWS V14.01,2013-09-10 23:12:00,
2013-09-10 18:17:00,77.9,63.4,29.03,SSE,158,0.0,0.0,61,0.00,,,0.00,VWS V14.01,2013-09-10 23:17:00,
2013-09-10 18:22:00,77.9,63.8,29.03,SSE,158,0.0,0.0,62,0.00,,,0.00,VWS V14.01,2013-09-10 23:22:00,
2013-09-10 18:27:00,77.9,63.8,29.03,SSE,158,0.0,0.0,62,0.00,,,0.00,VWS V14.01,2013-09-10 23:27:00,
2013-09-10 18:32:00,77.7,63.7,29.03,ENE,68,0.0,0.0,62,0.00,,,0.00,VWS V14.01,2013-09-10 23:32:00,
2013-09-10 18:37:00,77.7,63.7,29.00,ESE,112,0.0,0.0,62,0.00,,,0.00,VWS V14.01,2013-09-10 23:37:00,
2013-09-10 18:42:00,77.4,63.3,29.00,ESE,112,0.0,0.0,62,0.00,,,0.00,VWS V14.01,2013-09-10 23:42:00,
2013-09-10 18:47:00,77.2,63.6,29.00,ESE,112,0.0,0.0,63,0.00,,,0.00,VWS V14.01,2013-09-10 23:47:00,
2013-09-10 18:52:00,77.0,63.9,29.03,ESE,112,0.0,0.0,64,0.00,,,0.00,VWS V14.01,2013-09-10 23:52:00,
2013-09-10 18:57:00,76.6,64.0,29.03,ESE,112,0.0,0.0,65,0.00,,,0.00,VWS V14.01,2013-09-10 23:57:00,
2013-09-10 19:02:00,76.3,63.7,29.03,ESE,112,0.0,0.0,65,0.00,,,0.00,VWS V14.01,2013-09-11 00:02:00,
2013-09-10 19:07:00,76.1,63.9,29.03,ESE,112,0.0,0.0,66,0.00,,,0.00,VWS V14.01,2013-09-11 00:07:00,
2013-09-10 19:13:00,75.7,64.0,29.03,ESE,112,0.0,0.0,67,0.00,,,0.00,VWS V14.01,2013-09-11 00:13:00,
2013-09-10 19:18:00,75.6,63.8,29.03,ESE,112,0.0,0.0,67,0.00,,,0.00,VWS V14.01,2013-09-11 00:18:00,
2013-09-10 19:23:00,75.4,63.7,29.00,ESE,112,0.0,0.0,67,0.00,,,0.00,VWS V14.01,2013-09-11 00:23:00,
2013-09-10 19:28:00,75.0,63.8,29.00,ESE,112,0.0,0.0,68,0.00,,,0.00,VWS V14.01,2013-09-11 00:28:00,
2013-09-10 19:33:00,74.8,64.0,29.00,ESE,112,0.0,0.0,69,0.00,,,0.00,VWS V14.01,2013-09-11 00:33:00,
2013-09-10 19:38:00,74.7,63.8,29.03,ESE,112,0.0,0.0,69,0.00,,,0.00,VWS V14.01,2013-09-11 00:38:00,
2013-09-10 19:43:00,74.3,63.5,29.03,ESE,112,0.0,0.0,69,0.00,,,0.00,VWS V14.01,2013-09-11 00:43:00,
2013-09-10 19:48:00,73.9,63.5,29.03,ESE,112,0.0,0.0,70,0.00,,,0.00,VWS V14.01,2013-09-11 00:48:00,
2013-09-10 19:53:00,73.6,63.2,29.03,ESE,112,0.0,0.0,70,0.00,,,0.00,VWS V14.01,2013-09-11 00:53:00,
2013-09-10 19:58:00,73.0,63.1,29.03,ESE,112,0.0,0.0,71,0.00,,,0.00,VWS V14.01,2013-09-11 00:58:00,
2013-09-10 20:03:00,72.5,63.0,29.03,ESE,112,0.0,0.0,72,0.00,,,0.00,VWS V14.01,2013-09-11 01:03:00,
2013-09-10 20:08:00,72.0,62.8,29.03,ESE,112,0.0,0.0,73,0.00,,,0.00,VWS V14.01,2013-09-11 01:08:00,
2013-09-10 20:13:00,71.4,62.7,29.03,ESE,112,0.0,0.0,74,0.00,,,0.00,VWS V14.01,2013-09-11 01:13:00,
2013-09-10 20:18:00,71.1,62.4,29.03,ESE,112,0.0,0.0,74,0.00,,,0.00,VWS V14.01,2013-09-11 01:18:00,
2013-09-10 20:24:00,70.7,62.8,29.06,ESE,112,0.0,0.0,76,0.00,,,0.00,VWS V14.01,2013-09-11 01:24:00,
2013-09-10 20:29:00,70.5,62.6,29.06,ESE,112,0.0,0.0,76,0.00,,,0.00,VWS V14.01,2013-09-11 01:29:00,
2013-09-10 20:34:00,70.3,62.8,29.06,ESE,112,0.0,0.0,77,0.00,,,0.00,VWS V14.01,2013-09-11 01:34:00,
2013-09-10 20:39:00,70.2,62.6,29.06,ESE,112,0.0,0.0,77,0.00,,,0.00,VWS V14.01,2013-09-11 01:39:00,
2013-09-10 20:44:00,70.0,62.8,29.06,ESE,112,0.0,0.0,78,0.00,,,0.00,VWS V14.01,2013-09-11 01:44:00,
2013-09-10 20:49:00,69.8,62.6,29.06,ESE,112,0.0,0.0,78,0.00,,,0.00,VWS V14.01,2013-09-11 01:49:00,
2013-09-10 20:54:00,69.6,62.8,29.06,ESE,112,0.0,0.0,79,0.00,,,0.00,VWS V14.01,2013-09-11 01:54:00,
2013-09-10 20:59:00,69.6,63.2,29.06,ESE,112,0.0,0.9,80,0.00,,,0.00,VWS V14.01,2013-09-11 01:59:00,
2013-09-10 21:04:00,69.4,63.0,29.06,ESE,112,0.0,0.0,80,0.00,,,0.00,VWS V14.01,2013-09-11 02:04:00,
2013-09-10 21:09:00,69.6,63.2,29.06,ESE,112,0.0,0.0,80,0.00,,,0.00,VWS V14.01,2013-09-11 02:09:00,
2013-09-10 21:14:00,69.6,63.2,29.06,ESE,112,0.0,0.0,80,0.00,,,0.00,VWS V14.01,2013-09-11 02:14:00,
2013-09-10 21:19:00,69.6,63.2,29.06,ESE,112,0.0,0.0,80,0.00,,,0.00,VWS V14.01,2013-09-11 02:19:00,
2013-09-10 21:24:00,69.4,63.4,29.09,ESE,112,0.0,0.0,81,0.00,,,0.00,VWS V14.01,2013-09-11 02:24:00,
2013-09-10 21:29:00,69.3,63.2,29.09,ESE,112,0.0,0.0,81,0.00,,,0.00,VWS V14.01,2013-09-11 02:29:00,
2013-09-10 21:35:00,69.1,63.0,29.09,ESE,112,0.0,0.0,81,0.00,,,0.00,VWS V14.01,2013-09-11 02:35:00,
2013-09-10 21:40:00,68.9,62.8,29.09,ESE,112,0.0,0.0,81,0.00,,,0.00,VWS V14.01,2013-09-11 02:40:00,
2013-09-10 21:45:00,68.7,63.0,29.09,ESE,112,0.0,0.0,82,0.00,,,0.00,VWS V14.01,2013-09-11 02:45:00,
2013-09-10 21:50:00,68.7,63.0,29.09,ESE,112,0.0,0.0,82,0.00,,,0.00,VWS V14.01,2013-09-11 02:50:00,
2013-09-10 21:55:00,68.5,62.8,29.09,ESE,112,0.0,0.0,82,0.00,,,0.00,VWS V14.01,2013-09-11 02:55:00,
2013-09-10 22:00:00,68.4,63.0,29.09,ESE,112,0.0,0.0,83,0.00,,,0.00,VWS V14.01,2013-09-11 03:00:00,
2013-09-10 22:05:00,68.4,63.0,29.09,ESE,112,0.0,0.0,83,0.00,,,0.00,VWS V14.01,2013-09-11 03:05:00,
2013-09-10 22:10:00,68.2,62.8,29.09,ESE,112,0.0,0.0,83,0.00,,,0.00,VWS V14.01,2013-09-11 03:10:00,
2013-09-10 22:15:00,68.2,63.2,29.09,ESE,112,0.0,0.0,84,0.00,,,0.00,VWS V14.01,2013-09-11 03:15:00,
2013-09-10 22:21:00,68.2,62.8,29.09,ESE,112,0.0,0.0,83,0.00,,,0.00,VWS V14.01,2013-09-11 03:21:00,
2013-09-10 22:26:00,68.2,63.2,29.09,ESE,112,0.0,0.0,84,0.00,,,0.00,VWS V14.01,2013-09-11 03:26:00,
2013-09-10 22:31:00,68.2,63.2,29.09,ESE,112,0.0,0.0,84,0.00,,,0.00,VWS V14.01,2013-09-11 03:31:00,
2013-09-10 22:36:00,68.0,63.0,29.09,ESE,112,0.0,0.0,84,0.00,,,0.00,VWS V14.01,2013-09-11 03:36:00,
2013-09-10 22:41:00,68.0,63.0,29.09,ESE,112,0.0,0.0,84,0.00,,,0.00,VWS V14.01,2013-09-11 03:41:00,
2013-09-10 22:46:00,67.8,63.2,29.09,ESE,112,0.0,0.0,85,0.00,,,0.00,VWS V14.01,2013-09-11 03:46:00,
2013-09-10 22:51:00,67.8,63.2,29.09,ESE,112,0.0,0.0,85,0.00,,,0.00,VWS V14.01,2013-09-11 03:51:00,
2013-09-10 22:56:00,67.6,63.3,29.09,ESE,112,0.0,0.0,86,0.00,,,0.00,VWS V14.01,2013-09-11 03:56:00,
2013-09-10 23:01:00,67.6,63.3,29.09,ESE,112,0.0,0.0,86,0.00,,,0.00,VWS V14.01,2013-09-11 04:01:00,
2013-09-10 23:02:00,67.6,63.3,29.09,ESE,112,0.0,0.0,86,0.00,,,0.00,VWS V14.01,2013-09-11 04:02:00,
2013-09-10 23:03:00,67.6,63.3,29.09,ESE,112,0.0,0.0,86,0.00,,,0.00,VWS V14.01,2013-09-11 04:03:00,
2013-09-10 23:05:00,67.5,63.1,29.09,ESE,112,0.0,0.0,86,0.00,,,0.00,VWS V14.01,2013-09-11 04:05:00,
2013-09-10 23:10:00,67.5,63.1,29.09,ESE,112,0.0,0.0,86,0.00,,,0.00,VWS V14.01,2013-09-11 04:10:00,
2013-09-10 23:15:00,67.3,63.0,29.09,ESE,112,0.0,0.0,86,0.00,,,0.00,VWS V14.01,2013-09-11 04:15:00,
2013-09-10 23:20:00,67.3,63.3,29.09,ESE,112,0.0,0.0,87,0.00,,,0.00,VWS V14.01,2013-09-11 04:20:00,
2013-09-10 23:25:00,67.5,63.5,29.09,ESE,112,0.0,0.0,87,0.00,,,0.00,VWS V14.01,2013-09-11 04:25:00,
2013-09-10 23:30:00,67.5,63.5,29.09,ESE,112,0.0,0.0,87,0.00,,,0.00,VWS V14.01,2013-09-11 04:30:00,
2013-09-10 23:35:00,67.5,63.5,29.09,ESE,112,0.0,0.0,87,0.00,,,0.00,VWS V14.01,2013-09-11 04:35:00,
2013-09-10 23:40:00,67.5,63.5,29.09,ESE,112,0.0,0.0,87,0.00,,,0.00,VWS V14.01,2013-09-11 04:40:00,
2013-09-10 23:45:00,67.6,64.0,29.09,ESE,112,0.0,0.0,88,0.00,,,0.00,VWS V14.01,2013-09-11 04:45:00,
2013-09-10 23:50:00,67.6,64.0,29.09,ESE,112,0.0,0.0,88,0.00,,,0.00,VWS V14.01,2013-09-11 04:50:00,
2013-09-10 23:56:00,68.0,64.6,29.09,SW,225,2.0,2.2,89,0.00,,,0.00,VWS V14.01,2013-09-11 04:56:00,